Showing default

SPARK 2, 41901

Orbit data source: Space-Track

SPARK 2, 41901 is a payload satellite owned by SECM (CN) in SSO that was launched on Wed, 21 Dec 2016 UTC via a CHANG ZHENG 2D launch vehicle from the Jiuquan Satellite Launch Center, China (JSC). Payload-class satellites include a variety of spacecraft equipped with specific instruments for various scientific and technological missions. These include communications satellites like Starlink; space stations such as the ISS; scientific satellites like the Hubble; Earth observation satellites from companies like Planet Labs, Umbra, and HawkEye 360; GPS; miniature CubeSats for education and research; and military/defense satellites.

Loading next visibility...
Identifier
41901, 2016-081D
Orbit
SSO
Country
Flag of CNCN / PRC
Related business
Manufacturer
SECM
Mission
Operational Civil Imaging
Bus & Motor
SPARK, Unknown motor
Mass
43 kg wet, 43 kg dry
Launch date (UTC)
2016-12-21 (10 years ago)
Launch vehicle
CHANG ZHENG 2D
Launch site
Jiuquan Satellite Launch Center, China (JSC)
Object type
Payload
Rocket body
Debris
Shape & HBR
Box + 2 Pan, 0.5 m
Radar Cross Section
0.388 m², Medium (>0.1 m² and < 1m²)

Expand to show TLE details & history
Last TLE update: 2 days ago

TLE from 2 days ago
0 SPARK 2
1 41901U 16081D   26171.42523854  .00000372  00000-0  89393-4 0  9999
2 41901  98.5489 161.2939 0024414 316.6961  43.2318 14.59167736504591
Epoch: 2026-06-20T10:12Z
TLE epoch observation values (Epoch: 2026-06-20T10:12:20.609Z)
Latitude
-0.00007°
Longitude
99.56799°
Altitude
686.27 km
Speed
7.52 km/s
True Right ascension
10h 45m 10s
True Declination
0° 00' 00"
Sunlit
Object was in daylight at epoch
Visualization orbit readout
Latitude
Unknown
Longitude
Unknown
Altitude
Unknown
Speed
Unknown
Apparent Right ascension
Unknown
Apparent Declination
Unknown
Sunlit
N/A
Visualization observer readout
Local Sidereal Time
21:39:02
Azimuth
Unknown
Elevation
Unknown
Doppler factor
Unknown
Orbital elements
Apogee altitude
710.225 km
Perigee altitude
675.698 km
Semi-major axis
7,071.098 km
Eccentricity
0.00244
Inclination
98.5489°
RAAN
161.2939°
Arg. of periapsis
316.6961°
True anomaly
43.42385°
Mean anomaly
43.2318°
Eccentric anomaly
43.32778°
Mean motion
3.65017 °/min
Orbital period
98.63 mins
BSTAR
0.000089393
Loading maneuver chart data...
Computing Atmospheric mass density...
Loading historical data...
Loading historical data...
Loading historical data...
Loading historical data...
Loading historical data...
Loading historical data...
Loading historical data...
Other satellites on launch #81 in the year 2016 (2016-12-21 UTC)

Documentation

Showing up to 5 results
|